STARLINK-34702, 64908

Orbit data source: Space-Track

STARLINK-34702, 64908 is a payload satellite owned by SpaceX/Seattle (US) in LEO that was launched on Sat, 26 Jul 2025 UTC via an FALCON 9 launch vehicle from the Air Force Eastern Test Range (AFETR). Payload-class satellites include a variety of spacecraft equipped with specific instruments for various scientific and technological missions. These include communications satellites like Starlink; space stations such as the ISS; scientific satellites like the Hubble; Earth observation satellites from companies like Planet Labs, Umbra, and HawkEye 360; GPS; miniature CubeSats for education and research; and military/defense satellites.

Loading next visibility...
Identifier
64908, 2025-157E
Orbit
LEO
Country
Flag of USUS
Related business
Manufacturer
SpaceX/Seattle
Mission
Operational Commercial Communications
Bus & Motor
STARLINK V2MO, Unknown motor
Mass
575 kg wet, ~530 kg dry
Launch date (UTC)
2025-07-26 (10 months ago)
Launch vehicle
FALCON 9
Launch site
Air Force Eastern Test Range (AFETR)
Object type
Payload
Rocket body
Debris
Shape & HBR
Box + 2 Pan, 17.7 m
Radar Cross Section
36.964 m², Large (>1 m²)

Expand to show TLE details & history
Last TLE update: 8 hours ago

TLE from 8 hours ago
0 STARLINK-34702
1 64908U 25157E   26145.53608958  .00014726  00000-0  48516-3 0  9996
2 64908  53.1600 348.4159 0000823 109.2264 250.8826 15.31712101 47896
Epoch: 2026-05-25T12:51Z
TLE epoch observation values (Epoch: 2026-05-25T12:51:58.139Z)
Latitude
-0.00008°
Longitude
-87.69888°
Altitude
471.789 km
Speed
7.631 km/s
True Right ascension
23h 13m 39s
True Declination
0° 00' 00"
Sunlit
Object was in daylight at epoch
Visualization orbit readout
Latitude
Unknown
Longitude
Unknown
Altitude
Unknown
Speed
Unknown
Apparent Right ascension
Unknown
Apparent Declination
Unknown
Sunlit
N/A
Visualization observer readout
Local Sidereal Time
06:09:12
Azimuth
Unknown
Elevation
Unknown
Doppler factor
Unknown
Orbital elements
Apogee altitude
471.524 km
Perigee altitude
470.397 km
Semi-major axis
6,849.098 km
Eccentricity
0.00008
Inclination
53.16°
RAAN
348.4159°
Arg. of periapsis
109.2264°
True anomaly
250.87369°
Mean anomaly
250.8826°
Eccentric anomaly
250.87814°
Mean motion
3.82907 °/min
Orbital period
94.02 mins
BSTAR
0.00048516
Loading maneuver chart data...
Computing Atmospheric mass density...
Loading historical data...
Loading historical data...
Loading historical data...
Loading historical data...
Loading historical data...
Loading historical data...
Loading historical data...

Documentation

Showing up to 5 results
|